Year,Month,Day,Hour,Minute,Value (Times are PST for temperature in C)
2010,08,16,00,00,16.80
2010,08,16,00,01,16.80
2010,08,16,00,02,16.70
2010,08,16,00,03,16.70
2010,08,16,00,04,16.70
2010,08,16,00,05,16.70
2010,08,16,00,06,16.70
2010,08,16,00,07,16.70
2010,08,16,00,08,16.60
2010,08,16,00,09,16.60
2010,08,16,00,10,16.60
2010,08,16,00,11,16.60
2010,08,16,00,12,16.60
2010,08,16,00,13,16.50
2010,08,16,00,14,16.40
2010,08,16,00,15,16.40
2010,08,16,00,16,16.40
2010,08,16,00,17,16.40
2010,08,16,00,18,16.40
2010,08,16,00,19,16.40
2010,08,16,00,20,16.40
2010,08,16,00,21,16.40
2010,08,16,00,22,16.40
2010,08,16,00,23,16.30
2010,08,16,00,24,16.30
2010,08,16,00,25,16.30
2010,08,16,00,26,16.30
2010,08,16,00,27,16.30
2010,08,16,00,28,16.30
2010,08,16,00,29,16.30
2010,08,16,00,30,16.30
2010,08,16,00,31,16.30
2010,08,16,00,32,16.30
2010,08,16,00,33,16.30
2010,08,16,00,34,16.40
2010,08,16,00,35,16.40
2010,08,16,00,36,16.50
2010,08,16,00,37,16.60
2010,08,16,00,38,16.70
2010,08,16,00,39,16.80
2010,08,16,00,40,16.90
2010,08,16,00,41,17.00
2010,08,16,00,42,17.00
2010,08,16,00,43,17.10
2010,08,16,00,44,17.20
2010,08,16,00,45,17.20
2010,08,16,00,46,17.30
2010,08,16,00,47,17.30
2010,08,16,00,48,17.30
2010,08,16,00,49,17.30
2010,08,16,00,50,17.30
2010,08,16,00,51,17.20
2010,08,16,00,52,17.20
2010,08,16,00,53,17.20
2010,08,16,00,54,17.20
2010,08,16,00,55,17.10
2010,08,16,00,56,17.10
2010,08,16,00,57,17.10
2010,08,16,00,58,17.10
2010,08,16,00,59,17.10
2010,08,16,01,00,17.10
2010,08,16,01,01,17.20
2010,08,16,01,02,17.20
2010,08,16,01,03,17.20
2010,08,16,01,04,17.30
2010,08,16,01,05,17.30
2010,08,16,01,06,17.30
2010,08,16,01,07,17.30
2010,08,16,01,08,17.30
2010,08,16,01,09,17.30
2010,08,16,01,10,17.30
2010,08,16,01,11,17.30
2010,08,16,01,12,17.40
2010,08,16,01,13,17.50
2010,08,16,01,14,17.60
2010,08,16,01,15,17.60
2010,08,16,01,16,17.70
2010,08,16,01,17,17.70
2010,08,16,01,18,17.70
2010,08,16,01,19,17.70
2010,08,16,01,20,17.80
2010,08,16,01,21,17.80
2010,08,16,01,22,17.80
2010,08,16,01,23,17.90
2010,08,16,01,24,17.90
2010,08,16,01,25,17.90
2010,08,16,01,26,18.00
2010,08,16,01,27,18.10
2010,08,16,01,28,18.20
2010,08,16,01,29,18.20
2010,08,16,01,30,18.20
2010,08,16,01,31,18.30
2010,08,16,01,32,18.40
2010,08,16,01,33,18.40
2010,08,16,01,34,18.40
2010,08,16,01,35,18.40
2010,08,16,01,36,18.40
2010,08,16,01,37,18.40
2010,08,16,01,38,18.40
2010,08,16,01,39,18.40
2010,08,16,01,40,18.50
2010,08,16,01,41,18.50
2010,08,16,01,42,18.50
2010,08,16,01,43,18.50
2010,08,16,01,44,18.50
2010,08,16,01,45,18.50
2010,08,16,01,46,18.50
2010,08,16,01,47,18.50
2010,08,16,01,48,18.50
2010,08,16,01,49,18.50
2010,08,16,01,50,18.50
2010,08,16,01,51,18.50
2010,08,16,01,52,18.50
2010,08,16,01,53,18.50
2010,08,16,01,54,18.50
2010,08,16,01,55,18.60
2010,08,16,01,56,18.60
2010,08,16,01,57,18.60
2010,08,16,01,58,18.60
2010,08,16,01,59,18.60
2010,08,16,02,00,18.60
2010,08,16,02,01,18.60
2010,08,16,02,02,18.70
2010,08,16,02,03,18.70
2010,08,16,02,04,18.70
2010,08,16,02,05,18.70
2010,08,16,02,06,18.70
2010,08,16,02,07,18.70
2010,08,16,02,08,18.70
2010,08,16,02,09,18.70
2010,08,16,02,10,18.80
2010,08,16,02,11,18.80
2010,08,16,02,12,18.80
2010,08,16,02,13,18.80
2010,08,16,02,14,18.80
2010,08,16,02,15,18.80
2010,08,16,02,16,18.80
2010,08,16,02,17,18.90
2010,08,16,02,18,18.90
2010,08,16,02,19,18.90
2010,08,16,02,20,18.90
2010,08,16,02,21,18.90
2010,08,16,02,22,18.90
2010,08,16,02,23,18.90
2010,08,16,02,24,18.90
2010,08,16,02,25,18.90
2010,08,16,02,26,18.90
2010,08,16,02,27,18.90
2010,08,16,02,28,18.80
2010,08,16,02,29,18.80
2010,08,16,02,30,18.80
2010,08,16,02,31,18.80
2010,08,16,02,32,18.80
2010,08,16,02,33,18.70
2010,08,16,02,34,18.70
2010,08,16,02,35,18.70
2010,08,16,02,36,18.70
2010,08,16,02,37,18.70
2010,08,16,02,38,18.60
2010,08,16,02,39,18.60
2010,08,16,02,40,18.60
2010,08,16,02,41,18.60
2010,08,16,02,42,18.60
2010,08,16,02,43,18.60
2010,08,16,02,44,18.60
2010,08,16,02,45,18.50
2010,08,16,02,46,18.50
2010,08,16,02,47,18.50
2010,08,16,02,48,18.50
2010,08,16,02,49,18.40
2010,08,16,02,50,18.40
2010,08,16,02,51,18.30
2010,08,16,02,52,18.30
2010,08,16,02,53,18.20
2010,08,16,02,54,18.20
2010,08,16,02,55,18.10
2010,08,16,02,56,18.00
2010,08,16,02,57,17.90
2010,08,16,02,58,17.80
2010,08,16,02,59,17.70
2010,08,16,03,00,17.60
2010,08,16,03,01,17.50
2010,08,16,03,02,17.40
2010,08,16,03,03,17.30
2010,08,16,03,04,17.30
2010,08,16,03,05,17.20
2010,08,16,03,06,17.10
2010,08,16,03,07,17.00
2010,08,16,03,08,17.00
2010,08,16,03,09,17.00
2010,08,16,03,10,16.90
2010,08,16,03,11,16.90
2010,08,16,03,12,17.00
2010,08,16,03,13,17.00
2010,08,16,03,14,17.00
2010,08,16,03,15,17.00
2010,08,16,03,16,17.00
2010,08,16,03,17,17.10
2010,08,16,03,18,17.20
2010,08,16,03,19,17.30
2010,08,16,03,20,17.30
2010,08,16,03,21,17.30
2010,08,16,03,22,17.40
2010,08,16,03,23,17.40
2010,08,16,03,24,17.50
2010,08,16,03,25,17.50
2010,08,16,03,26,17.60
2010,08,16,03,27,17.60
2010,08,16,03,28,17.70
2010,08,16,03,29,17.80
2010,08,16,03,30,17.80
2010,08,16,03,31,17.80
2010,08,16,03,32,17.80
2010,08,16,03,33,17.90
2010,08,16,03,34,17.90
2010,08,16,03,35,17.90
2010,08,16,03,36,17.90
2010,08,16,03,37,17.90
2010,08,16,03,38,17.90
2010,08,16,03,39,17.90
2010,08,16,03,40,17.90
2010,08,16,03,41,17.90
2010,08,16,03,42,17.90
2010,08,16,03,43,17.90
2010,08,16,03,44,17.90
2010,08,16,03,45,17.90
2010,08,16,03,46,17.80
2010,08,16,03,47,17.80
2010,08,16,03,48,17.70
2010,08,16,03,49,17.70
2010,08,16,03,50,17.70
2010,08,16,03,51,17.60
2010,08,16,03,52,17.60
2010,08,16,03,53,17.60
2010,08,16,03,54,17.50
2010,08,16,03,55,17.50
2010,08,16,03,56,17.50
2010,08,16,03,57,17.40
2010,08,16,03,58,17.40
2010,08,16,03,59,17.30
2010,08,16,04,00,17.30
2010,08,16,04,01,17.30
2010,08,16,04,02,17.20
2010,08,16,04,03,17.20
2010,08,16,04,04,17.10
2010,08,16,04,05,17.00
2010,08,16,04,06,17.00
2010,08,16,04,07,16.90
2010,08,16,04,08,16.90
2010,08,16,04,09,16.80
2010,08,16,04,10,16.80
2010,08,16,04,11,16.70
2010,08,16,04,12,16.70
2010,08,16,04,13,16.70
2010,08,16,04,14,16.70
2010,08,16,04,15,16.70
2010,08,16,04,16,16.70
2010,08,16,04,17,16.60
2010,08,16,04,18,16.60
2010,08,16,04,19,16.50
2010,08,16,04,20,16.40
2010,08,16,04,21,16.40
2010,08,16,04,22,16.40
2010,08,16,04,23,16.30
2010,08,16,04,24,16.30
2010,08,16,04,25,16.30
2010,08,16,04,26,16.20
2010,08,16,04,27,16.20
2010,08,16,04,28,16.20
2010,08,16,04,29,16.30
2010,08,16,04,30,16.30
2010,08,16,04,31,16.30
2010,08,16,04,32,16.30
2010,08,16,04,33,16.30
2010,08,16,04,34,16.30
2010,08,16,04,35,16.30
2010,08,16,04,36,16.30
2010,08,16,04,37,16.20
2010,08,16,04,38,16.20
2010,08,16,04,39,16.20
2010,08,16,04,40,16.20
2010,08,16,04,41,16.20
2010,08,16,04,42,16.10
2010,08,16,04,43,16.10
2010,08,16,04,44,16.20
2010,08,16,04,45,16.20
2010,08,16,04,46,16.20
2010,08,16,04,47,16.20
2010,08,16,04,48,16.20
2010,08,16,04,49,16.20
2010,08,16,04,50,16.20
2010,08,16,04,51,16.20
2010,08,16,04,52,16.20
2010,08,16,04,53,16.20
2010,08,16,04,54,16.20
2010,08,16,04,55,16.20
2010,08,16,04,56,16.20
2010,08,16,04,57,16.20
2010,08,16,04,58,16.30
2010,08,16,04,59,16.30
2010,08,16,05,00,16.30
2010,08,16,05,01,16.30
2010,08,16,05,02,16.20
2010,08,16,05,03,16.20
2010,08,16,05,04,16.10
2010,08,16,05,05,16.00
2010,08,16,05,06,15.90
2010,08,16,05,07,15.80
2010,08,16,05,08,15.80
2010,08,16,05,09,15.80
2010,08,16,05,10,15.70
2010,08,16,05,11,15.70
2010,08,16,05,12,15.60
2010,08,16,05,13,15.60
2010,08,16,05,14,15.60
2010,08,16,05,15,15.60
2010,08,16,05,16,15.60
2010,08,16,05,17,15.60
2010,08,16,05,18,15.60
2010,08,16,05,19,15.50
2010,08,16,05,20,15.50
2010,08,16,05,21,15.50
2010,08,16,05,22,15.40
2010,08,16,05,23,15.40
2010,08,16,05,24,15.40
2010,08,16,05,25,15.30
2010,08,16,05,26,15.30
2010,08,16,05,27,15.30
2010,08,16,05,28,15.20
2010,08,16,05,29,15.10
2010,08,16,05,30,15.10
2010,08,16,05,31,15.10
2010,08,16,05,32,15.00
2010,08,16,05,33,15.00
2010,08,16,05,34,14.90
2010,08,16,05,35,14.90
2010,08,16,05,36,14.80
2010,08,16,05,37,14.80
2010,08,16,05,38,14.80
2010,08,16,05,39,14.80
2010,08,16,05,40,14.70
2010,08,16,05,41,14.70
2010,08,16,05,42,14.60
2010,08,16,05,43,14.60
2010,08,16,05,44,14.60
2010,08,16,05,45,14.60
2010,08,16,05,46,14.50
2010,08,16,05,47,14.50
2010,08,16,05,48,14.50
2010,08,16,05,49,14.50
2010,08,16,05,50,14.50
2010,08,16,05,51,14.40
2010,08,16,05,52,14.40
2010,08,16,05,53,14.40
2010,08,16,05,54,14.40
2010,08,16,05,55,14.40
2010,08,16,05,56,14.40
2010,08,16,05,57,14.50
2010,08,16,05,58,14.60
2010,08,16,05,59,14.60
2010,08,16,06,00,14.70
2010,08,16,06,01,14.70
2010,08,16,06,02,14.80
2010,08,16,06,03,14.80
2010,08,16,06,04,14.90
2010,08,16,06,05,14.90
2010,08,16,06,06,14.90
2010,08,16,06,07,14.90
2010,08,16,06,08,14.90
2010,08,16,06,09,14.90
2010,08,16,06,10,14.90
2010,08,16,06,11,14.90
2010,08,16,06,12,14.90
2010,08,16,06,13,14.90
2010,08,16,06,14,14.90
2010,08,16,06,15,14.90
2010,08,16,06,16,14.90
2010,08,16,06,17,14.90
2010,08,16,06,18,15.00
2010,08,16,06,19,15.10
2010,08,16,06,20,15.10
2010,08,16,06,21,15.10
2010,08,16,06,22,15.20
2010,08,16,06,23,15.30
2010,08,16,06,24,15.30
2010,08,16,06,25,15.30
2010,08,16,06,26,15.40
2010,08,16,06,27,15.40
2010,08,16,06,28,15.40
2010,08,16,06,29,15.50
2010,08,16,06,30,15.50
2010,08,16,06,31,15.60
2010,08,16,06,32,15.60
2010,08,16,06,33,15.70
2010,08,16,06,34,15.80
2010,08,16,06,35,15.80
2010,08,16,06,36,15.80
2010,08,16,06,37,15.80
2010,08,16,06,38,15.90
2010,08,16,06,39,15.90
2010,08,16,06,40,15.90
2010,08,16,06,41,15.90
2010,08,16,06,42,15.90
2010,08,16,06,43,16.00
2010,08,16,06,44,16.10
2010,08,16,06,45,16.10
2010,08,16,06,46,16.10
2010,08,16,06,47,16.10
2010,08,16,06,48,16.10
2010,08,16,06,49,16.10
2010,08,16,06,50,16.10
2010,08,16,06,51,16.10
2010,08,16,06,52,16.10
2010,08,16,06,53,16.10
2010,08,16,06,54,16.20
2010,08,16,06,55,16.20
2010,08,16,06,56,16.20
2010,08,16,06,57,16.30
2010,08,16,06,58,16.30
2010,08,16,06,59,16.30
2010,08,16,07,00,16.40
2010,08,16,07,01,16.40
2010,08,16,07,02,16.40
2010,08,16,07,03,16.40
2010,08,16,07,04,16.40
2010,08,16,07,05,16.40
2010,08,16,07,06,16.40
2010,08,16,07,07,16.40
2010,08,16,07,08,16.40
2010,08,16,07,09,16.40
2010,08,16,07,10,16.40
2010,08,16,07,11,16.40
2010,08,16,07,12,16.40
2010,08,16,07,13,16.50
2010,08,16,07,14,16.60
2010,08,16,07,15,16.60
2010,08,16,07,16,16.60
2010,08,16,07,17,16.70
2010,08,16,07,18,16.70
2010,08,16,07,19,16.70
2010,08,16,07,20,16.70
2010,08,16,07,21,16.70
2010,08,16,07,22,16.70
2010,08,16,07,23,16.70
2010,08,16,07,24,16.80
2010,08,16,07,25,16.80
2010,08,16,07,26,16.80
2010,08,16,07,27,16.80
2010,08,16,07,28,16.90
2010,08,16,07,29,16.90
2010,08,16,07,30,17.00
2010,08,16,07,31,17.00
2010,08,16,07,32,17.10
2010,08,16,07,33,17.20
2010,08,16,07,34,17.30
2010,08,16,07,35,17.30
2010,08,16,07,36,17.40
2010,08,16,07,37,17.40
2010,08,16,07,38,17.40
2010,08,16,07,39,17.50
2010,08,16,07,40,17.50
2010,08,16,07,41,17.60
2010,08,16,07,42,17.60
2010,08,16,07,43,17.70
2010,08,16,07,44,17.80
2010,08,16,07,45,17.90
2010,08,16,07,46,17.90
2010,08,16,07,47,18.00
2010,08,16,07,48,18.10
2010,08,16,07,49,18.20
2010,08,16,07,50,18.20
2010,08,16,07,51,18.20
2010,08,16,07,52,18.30
2010,08,16,07,53,18.30
2010,08,16,07,54,18.30
2010,08,16,07,55,18.30
2010,08,16,07,56,18.40
2010,08,16,07,57,18.40
2010,08,16,07,58,18.50
2010,08,16,07,59,18.50
2010,08,16,08,00,18.60
2010,08,16,08,01,18.60
2010,08,16,08,02,18.60
2010,08,16,08,03,18.70
2010,08,16,08,04,18.80
2010,08,16,08,05,18.90
2010,08,16,08,06,18.90
2010,08,16,08,07,19.10
2010,08,16,08,08,19.10
2010,08,16,08,09,19.20
2010,08,16,08,10,19.30
2010,08,16,08,11,19.40
2010,08,16,08,12,19.50
2010,08,16,08,13,19.60
2010,08,16,08,14,19.60
2010,08,16,08,15,19.60
2010,08,16,08,16,19.60
2010,08,16,08,17,19.70
2010,08,16,08,18,19.70
2010,08,16,08,19,19.80
2010,08,16,08,20,19.80
2010,08,16,08,21,19.80
2010,08,16,08,22,19.80
2010,08,16,08,23,19.70
2010,08,16,08,24,19.70
2010,08,16,08,25,19.60
2010,08,16,08,26,19.50
2010,08,16,08,27,19.40
2010,08,16,08,28,19.30
2010,08,16,08,29,19.10
2010,08,16,08,30,19.10
2010,08,16,08,31,19.10
2010,08,16,08,32,19.00
2010,08,16,08,33,18.90
2010,08,16,08,34,18.90
2010,08,16,08,35,18.90
2010,08,16,08,36,18.90
2010,08,16,08,37,18.90
2010,08,16,08,38,18.90
2010,08,16,08,39,18.80
2010,08,16,08,40,18.80
2010,08,16,08,41,18.80
2010,08,16,08,42,18.80
2010,08,16,08,43,18.80
2010,08,16,08,44,18.80
2010,08,16,08,45,18.80
2010,08,16,08,46,18.80
2010,08,16,08,47,18.80
2010,08,16,08,48,18.80
2010,08,16,08,49,18.80
2010,08,16,08,50,18.80
2010,08,16,08,51,18.90
2010,08,16,08,52,18.90
2010,08,16,08,53,19.00
2010,08,16,08,54,19.10
2010,08,16,08,55,19.10
2010,08,16,08,56,19.20
2010,08,16,08,57,19.30
2010,08,16,08,58,19.30
2010,08,16,08,59,19.40
2010,08,16,09,00,19.50
2010,08,16,09,01,19.60
2010,08,16,09,02,19.60
2010,08,16,09,03,19.70
2010,08,16,09,04,19.80
2010,08,16,09,05,19.90
2010,08,16,09,06,19.90
2010,08,16,09,07,19.90
2010,08,16,09,08,19.80
2010,08,16,09,09,19.80
2010,08,16,09,10,19.80
2010,08,16,09,11,19.80
2010,08,16,09,12,19.80
2010,08,16,09,13,19.90
2010,08,16,09,14,19.90
2010,08,16,09,15,19.90
2010,08,16,09,16,19.90
2010,08,16,09,17,20.00
2010,08,16,09,18,20.10
2010,08,16,09,19,20.20
2010,08,16,09,20,20.20
2010,08,16,09,21,20.20
2010,08,16,09,22,20.20
2010,08,16,09,23,20.20
2010,08,16,09,24,20.20
2010,08,16,09,25,20.30
2010,08,16,09,26,20.30
2010,08,16,09,27,20.40
2010,08,16,09,28,20.50
2010,08,16,09,29,20.60
2010,08,16,09,30,20.70
2010,08,16,09,31,20.70
2010,08,16,09,32,20.80
2010,08,16,09,33,20.80
2010,08,16,09,34,20.80
2010,08,16,09,35,20.70
2010,08,16,09,36,20.60
2010,08,16,09,37,20.50
2010,08,16,09,38,20.30
2010,08,16,09,39,20.20
2010,08,16,09,40,20.10
2010,08,16,09,41,20.00
2010,08,16,09,42,19.90
2010,08,16,09,43,19.90
2010,08,16,09,44,19.80
2010,08,16,09,45,19.80
2010,08,16,09,46,19.80
2010,08,16,09,47,19.90
2010,08,16,09,48,19.90
2010,08,16,09,49,19.90
2010,08,16,09,50,19.90
2010,08,16,09,51,19.90
2010,08,16,09,52,19.90
2010,08,16,09,53,19.90
2010,08,16,09,54,19.90
2010,08,16,09,55,19.80
2010,08,16,09,56,19.70
2010,08,16,09,57,19.70
2010,08,16,09,58,19.70
2010,08,16,09,59,19.70
2010,08,16,10,00,19.70
2010,08,16,10,01,19.70
2010,08,16,10,02,19.80
2010,08,16,10,03,19.80
2010,08,16,10,04,19.90
2010,08,16,10,05,20.00
2010,08,16,10,06,20.20
2010,08,16,10,07,20.30
2010,08,16,10,08,20.30
2010,08,16,10,09,20.40
2010,08,16,10,10,20.50
2010,08,16,10,11,20.60
2010,08,16,10,12,20.70
2010,08,16,10,13,20.80
2010,08,16,10,14,21.00
2010,08,16,10,15,21.00
2010,08,16,10,16,21.00
2010,08,16,10,17,20.90
2010,08,16,10,18,20.80
2010,08,16,10,19,20.80
2010,08,16,10,20,20.70
2010,08,16,10,21,20.70
2010,08,16,10,22,20.70
2010,08,16,10,23,20.70
2010,08,16,10,24,20.70
2010,08,16,10,25,20.80
2010,08,16,10,26,20.80
2010,08,16,10,27,21.00
2010,08,16,10,28,21.00
2010,08,16,10,29,21.10
2010,08,16,10,30,21.20
2010,08,16,10,31,21.20
2010,08,16,10,32,21.30
2010,08,16,10,33,21.40
2010,08,16,10,34,21.60
2010,08,16,10,35,21.60
2010,08,16,10,36,21.60
2010,08,16,10,37,21.70
2010,08,16,10,38,21.90
2010,08,16,10,39,22.10
2010,08,16,10,40,22.10
2010,08,16,10,41,22.10
2010,08,16,10,42,22.10
2010,08,16,10,43,22.10
2010,08,16,10,44,22.10
2010,08,16,10,45,22.00
2010,08,16,10,46,22.00
2010,08,16,10,47,22.00
2010,08,16,10,48,22.00
2010,08,16,10,49,22.10
2010,08,16,10,50,22.00
2010,08,16,10,51,22.00
2010,08,16,10,52,21.90
2010,08,16,10,53,21.90
2010,08,16,10,54,21.90
2010,08,16,10,55,21.80
2010,08,16,10,56,21.80
2010,08,16,10,57,21.90
2010,08,16,10,58,22.00
2010,08,16,10,59,22.10
2010,08,16,11,00,22.10
2010,08,16,11,01,22.10
2010,08,16,11,02,22.30
2010,08,16,11,03,22.30
2010,08,16,11,04,22.40
2010,08,16,11,05,22.50
2010,08,16,11,06,22.60
2010,08,16,11,07,22.60
2010,08,16,11,08,22.60
2010,08,16,11,09,22.70
2010,08,16,11,10,22.90
2010,08,16,11,11,23.10
2010,08,16,11,12,23.30
2010,08,16,11,13,23.40
2010,08,16,11,14,23.40
2010,08,16,11,15,23.50
2010,08,16,11,16,23.60
2010,08,16,11,17,23.70
2010,08,16,11,18,23.70
2010,08,16,11,19,23.80
2010,08,16,11,20,23.80
2010,08,16,11,21,23.90
2010,08,16,11,22,23.90
2010,08,16,11,23,24.00
2010,08,16,11,24,23.90
2010,08,16,11,25,23.80
2010,08,16,11,26,23.80
2010,08,16,11,27,23.80
2010,08,16,11,28,23.70
2010,08,16,11,29,23.70
2010,08,16,11,30,23.70
2010,08,16,11,31,23.90
2010,08,16,11,32,24.10
2010,08,16,11,33,24.20
2010,08,16,11,34,24.30
2010,08,16,11,35,24.30
2010,08,16,11,36,24.30
2010,08,16,11,37,24.30
2010,08,16,11,38,24.30
2010,08,16,11,39,24.40
2010,08,16,11,40,24.40
2010,08,16,11,41,24.40
2010,08,16,11,42,24.40
2010,08,16,11,43,24.40
2010,08,16,11,44,24.40
2010,08,16,11,45,24.40
2010,08,16,11,46,24.50
2010,08,16,11,47,24.60
2010,08,16,11,48,24.70
2010,08,16,11,49,24.80
2010,08,16,11,50,24.80
2010,08,16,11,51,24.80
2010,08,16,11,52,24.90
2010,08,16,11,53,24.90
2010,08,16,11,54,25.10
2010,08,16,11,55,25.20
2010,08,16,11,56,25.20
2010,08,16,11,57,25.10
2010,08,16,11,58,25.10
2010,08,16,11,59,25.00
2010,08,16,12,00,24.90
2010,08,16,12,01,24.80
2010,08,16,12,02,24.70
2010,08,16,12,03,24.50
2010,08,16,12,04,24.40
2010,08,16,12,05,24.40
2010,08,16,12,06,24.50
2010,08,16,12,07,24.50
2010,08,16,12,08,24.70
2010,08,16,12,09,24.80
2010,08,16,12,10,24.90
2010,08,16,12,11,25.00
2010,08,16,12,12,25.20
2010,08,16,12,13,25.40
2010,08,16,12,14,25.60
2010,08,16,12,15,25.80
2010,08,16,12,16,25.80
2010,08,16,12,17,25.80
2010,08,16,12,18,25.80
2010,08,16,12,19,25.70
2010,08,16,12,20,25.40
2010,08,16,12,21,25.30
2010,08,16,12,22,25.20
2010,08,16,12,23,25.20
2010,08,16,12,24,25.30
2010,08,16,12,25,25.30
2010,08,16,12,26,25.50
2010,08,16,12,27,25.50
2010,08,16,12,28,25.70
2010,08,16,12,29,25.90
2010,08,16,12,30,26.00
2010,08,16,12,31,25.90
2010,08,16,12,32,25.90
2010,08,16,12,33,25.80
2010,08,16,12,34,25.70
2010,08,16,12,35,25.60
2010,08,16,12,36,25.40
2010,08,16,12,37,25.30
2010,08,16,12,38,25.20
2010,08,16,12,39,25.00
2010,08,16,12,40,24.90
2010,08,16,12,41,24.80
2010,08,16,12,42,24.80
2010,08,16,12,43,24.70
2010,08,16,12,44,24.70
2010,08,16,12,45,24.80
2010,08,16,12,46,24.90
2010,08,16,12,47,24.90
2010,08,16,12,48,24.90
2010,08,16,12,49,25.00
2010,08,16,12,50,24.90
2010,08,16,12,51,24.90
2010,08,16,12,52,24.90
2010,08,16,12,53,24.80
2010,08,16,12,54,24.90
2010,08,16,12,55,24.90
2010,08,16,12,56,25.10
2010,08,16,12,57,25.20
2010,08,16,12,58,25.20
2010,08,16,12,59,25.20
2010,08,16,13,00,25.10
2010,08,16,13,01,25.00
2010,08,16,13,02,24.90
2010,08,16,13,03,24.90
2010,08,16,13,04,25.00
2010,08,16,13,05,25.10
2010,08,16,13,06,25.20
2010,08,16,13,07,25.40
2010,08,16,13,08,25.50
2010,08,16,13,09,25.60
2010,08,16,13,10,25.70
2010,08,16,13,11,25.80
2010,08,16,13,12,25.90
2010,08,16,13,13,26.10
2010,08,16,13,14,26.20
2010,08,16,13,15,26.30
2010,08,16,13,16,26.40
2010,08,16,13,17,26.50
2010,08,16,13,18,26.60
2010,08,16,13,19,26.60
2010,08,16,13,20,26.70
2010,08,16,13,21,26.70
2010,08,16,13,22,26.80
2010,08,16,13,23,26.80
2010,08,16,13,24,26.80
2010,08,16,13,25,26.80
2010,08,16,13,26,26.80
2010,08,16,13,27,26.80
2010,08,16,13,28,26.90
2010,08,16,13,29,26.90
2010,08,16,13,30,26.70
2010,08,16,13,31,26.50
2010,08,16,13,32,26.40
2010,08,16,13,33,26.50
2010,08,16,13,34,26.60
2010,08,16,13,35,26.70
2010,08,16,13,36,26.80
2010,08,16,13,37,26.80
2010,08,16,13,38,26.90
2010,08,16,13,39,27.00
2010,08,16,13,40,27.10
2010,08,16,13,41,27.10
2010,08,16,13,42,27.20
2010,08,16,13,43,27.20
2010,08,16,13,44,27.30
2010,08,16,13,45,27.30
2010,08,16,13,46,27.30
2010,08,16,13,47,27.30
2010,08,16,13,48,27.10
2010,08,16,13,49,26.90
2010,08,16,13,50,26.80
2010,08,16,13,51,26.80
2010,08,16,13,52,26.70
2010,08,16,13,53,26.60
2010,08,16,13,54,26.60
2010,08,16,13,55,26.50
2010,08,16,13,56,26.40
2010,08,16,13,57,26.30
2010,08,16,13,58,26.20
2010,08,16,13,59,26.10
2010,08,16,14,00,26.20
2010,08,16,14,01,26.20
2010,08,16,14,02,26.30
2010,08,16,14,03,26.40
2010,08,16,14,04,26.50
2010,08,16,14,05,26.60
2010,08,16,14,06,26.60
2010,08,16,14,07,26.60
2010,08,16,14,08,26.60
2010,08,16,14,09,26.60
2010,08,16,14,10,26.70
2010,08,16,14,11,26.70
2010,08,16,14,12,26.70
2010,08,16,14,13,26.60
2010,08,16,14,14,26.60
2010,08,16,14,15,26.70
2010,08,16,14,16,26.70
2010,08,16,14,17,26.60
2010,08,16,14,18,26.50
2010,08,16,14,19,26.30
2010,08,16,14,20,26.10
2010,08,16,14,21,25.90
2010,08,16,14,22,25.80
2010,08,16,14,23,25.60
2010,08,16,14,24,25.60
2010,08,16,14,25,25.60
2010,08,16,14,26,25.50
2010,08,16,14,27,25.50
2010,08,16,14,28,25.50
2010,08,16,14,29,25.50
2010,08,16,14,30,25.60
2010,08,16,14,31,25.70
2010,08,16,14,32,25.80
2010,08,16,14,33,25.90
2010,08,16,14,34,26.00
2010,08,16,14,35,26.10
2010,08,16,14,36,26.30
2010,08,16,14,37,26.40
2010,08,16,14,38,26.60
2010,08,16,14,39,26.70
2010,08,16,14,40,26.80
2010,08,16,14,41,26.90
2010,08,16,14,42,26.90
2010,08,16,14,43,26.90
2010,08,16,14,44,27.10
2010,08,16,14,45,27.20
2010,08,16,14,46,27.20
2010,08,16,14,47,27.30
2010,08,16,14,48,27.30
2010,08,16,14,49,27.30
2010,08,16,14,50,27.20
2010,08,16,14,51,27.10
2010,08,16,14,52,27.10
2010,08,16,14,53,27.10
2010,08,16,14,54,27.10
2010,08,16,14,55,27.10
2010,08,16,14,56,27.10
2010,08,16,14,57,27.20
2010,08,16,14,58,27.20
2010,08,16,14,59,27.30
2010,08,16,15,00,27.30
2010,08,16,15,01,27.40
2010,08,16,15,02,27.50
2010,08,16,15,03,27.60
2010,08,16,15,04,27.70
2010,08,16,15,05,27.70
2010,08,16,15,06,27.60
2010,08,16,15,07,27.40
2010,08,16,15,08,27.30
2010,08,16,15,09,27.30
2010,08,16,15,10,27.30
2010,08,16,15,11,27.30
2010,08,16,15,12,27.30
2010,08,16,15,13,27.30
2010,08,16,15,14,27.20
2010,08,16,15,15,27.10
2010,08,16,15,16,27.00
2010,08,16,15,17,26.90
2010,08,16,15,18,26.80
2010,08,16,15,19,26.80
2010,08,16,15,20,26.70
2010,08,16,15,21,26.70
2010,08,16,15,22,26.80
2010,08,16,15,23,26.80
2010,08,16,15,24,26.70
2010,08,16,15,25,26.70
2010,08,16,15,26,26.70
2010,08,16,15,27,26.70
2010,08,16,15,28,26.70
2010,08,16,15,29,26.80
2010,08,16,15,30,26.80
2010,08,16,15,31,27.00
2010,08,16,15,32,27.10
2010,08,16,15,33,27.20
2010,08,16,15,34,27.30
2010,08,16,15,35,27.30
2010,08,16,15,36,27.30
2010,08,16,15,37,27.30
2010,08,16,15,38,27.30
2010,08,16,15,39,27.30
2010,08,16,15,40,27.30
2010,08,16,15,41,27.30
2010,08,16,15,42,27.30
2010,08,16,15,43,27.30
2010,08,16,15,44,27.30
2010,08,16,15,45,27.30
2010,08,16,15,46,27.30
2010,08,16,15,47,27.30
2010,08,16,15,48,27.20
2010,08,16,15,49,27.00
2010,08,16,15,50,26.90
2010,08,16,15,51,26.70
2010,08,16,15,52,26.60
2010,08,16,15,53,26.70
2010,08,16,15,54,26.70
2010,08,16,15,55,26.70
2010,08,16,15,56,26.70
2010,08,16,15,57,26.80
2010,08,16,15,58,26.80
2010,08,16,15,59,26.90
2010,08,16,16,00,26.90
2010,08,16,16,01,27.00
2010,08,16,16,02,27.20
2010,08,16,16,03,27.20
2010,08,16,16,04,27.20
2010,08,16,16,05,27.10
2010,08,16,16,06,27.10
2010,08,16,16,07,27.10
2010,08,16,16,08,27.10
2010,08,16,16,09,26.90
2010,08,16,16,10,26.80
2010,08,16,16,11,26.60
2010,08,16,16,12,26.60
2010,08,16,16,13,26.40
2010,08,16,16,14,26.30
2010,08,16,16,15,26.20
2010,08,16,16,16,26.10
2010,08,16,16,17,25.90
2010,08,16,16,18,25.80
2010,08,16,16,19,25.60
2010,08,16,16,20,25.40
2010,08,16,16,21,25.30
2010,08,16,16,22,25.10
2010,08,16,16,23,24.90
2010,08,16,16,24,24.80
2010,08,16,16,25,24.70
2010,08,16,16,26,24.60
2010,08,16,16,27,24.50
2010,08,16,16,28,24.50
2010,08,16,16,29,24.40
2010,08,16,16,30,24.30
2010,08,16,16,31,24.10
2010,08,16,16,32,24.00
2010,08,16,16,33,23.80
2010,08,16,16,34,23.70
2010,08,16,16,35,23.70
2010,08,16,16,36,23.70
2010,08,16,16,37,23.60
2010,08,16,16,38,23.60
2010,08,16,16,39,23.60
2010,08,16,16,40,23.50
2010,08,16,16,41,23.40
2010,08,16,16,42,23.40
2010,08,16,16,43,23.40
2010,08,16,16,44,23.30
2010,08,16,16,45,23.30
2010,08,16,16,46,23.30
2010,08,16,16,47,23.30
2010,08,16,16,48,23.30
2010,08,16,16,49,23.30
2010,08,16,16,50,23.30
2010,08,16,16,51,23.30
2010,08,16,16,52,23.30
2010,08,16,16,53,23.30
2010,08,16,16,54,23.30
2010,08,16,16,55,23.30
2010,08,16,16,56,23.20
2010,08,16,16,57,23.20
2010,08,16,16,58,23.10
2010,08,16,16,59,23.10
2010,08,16,17,00,23.10
2010,08,16,17,01,23.10
2010,08,16,17,02,23.00
2010,08,16,17,03,22.90
2010,08,16,17,04,23.00
2010,08,16,17,05,23.10
2010,08,16,17,06,23.10
2010,08,16,17,07,23.00
2010,08,16,17,08,22.90
2010,08,16,17,09,22.80
2010,08,16,17,10,22.70
2010,08,16,17,11,22.60
2010,08,16,17,12,22.60
2010,08,16,17,13,22.60
2010,08,16,17,14,22.60
2010,08,16,17,15,22.60
2010,08,16,17,16,22.60
2010,08,16,17,17,22.60
2010,08,16,17,18,22.70
2010,08,16,17,19,22.70